TimeEST,TemperatureF,Dew PointF,Humidity,Sea Level PressureIn,VisibilityMPH,Wind Direction,Wind SpeedMPH,Gust SpeedMPH,PrecipitationIn,Events,Conditions,WindDirDegrees,DateUTC
12:56 AM,41.9,28.0,58,29.88,8.0,SW,20.7,24.2,N/A,,Clear,230,2013-01-20 05:56:00
1:56 AM,41.9,30.0,63,29.88,7.0,WSW,19.6,28.8,N/A,,Clear,240,2013-01-20 06:56:00
2:56 AM,41.9,32.0,68,29.92,7.0,West,19.6,26.5,N/A,,Mostly Cloudy,260,2013-01-20 07:56:00
3:37 AM,41.0,32.0,70,29.93,7.0,WNW,16.1,26.5,N/A,,Overcast,290,2013-01-20 08:37:00
3:56 AM,39.9,30.0,68,29.95,7.0,West,23.0,35.7,N/A,,Mostly Cloudy,270,2013-01-20 08:56:00
4:09 AM,39.2,26.6,61,29.94,7.0,West,27.6,38.0,N/A,,Scattered Clouds,270,2013-01-20 09:09:00
4:56 AM,34.9,19.0,52,29.98,8.0,West,21.9,-,N/A,,Clear,280,2013-01-20 09:56:00
5:56 AM,31.1,14.0,49,30.01,7.0,WNW,26.5,33.4,N/A,,Clear,290,2013-01-20 10:56:00
6:56 AM,27.1,12.0,53,30.06,7.0,West,19.6,29.9,N/A,,Clear,280,2013-01-20 11:56:00
7:56 AM,25.2,12.0,58,30.11,6.0,WNW,18.4,25.3,N/A,,Haze,300,2013-01-20 12:56:00
8:56 AM,24.1,11.1,58,30.16,6.0,NW,15.0,-,N/A,,Haze,310,2013-01-20 13:56:00
9:56 AM,25.2,10.0,53,30.19,6.0,NW,13.8,-,N/A,,Haze,310,2013-01-20 14:56:00
10:56 AM,25.2,10.0,53,30.24,6.0,WNW,16.1,-,N/A,,Haze,290,2013-01-20 15:56:00
11:56 AM,25.2,10.0,53,30.24,6.0,West,15.0,20.7,N/A,,Haze,280,2013-01-20 16:56:00
12:56 PM,25.2,10.0,53,30.22,6.0,West,10.4,-,N/A,,Haze,280,2013-01-20 17:56:00
1:56 PM,27.1,10.0,49,30.20,6.0,WNW,10.4,-,N/A,,Haze,290,2013-01-20 18:56:00
2:56 PM,28.0,11.1,49,30.19,6.0,West,9.2,-,N/A,,Haze,270,2013-01-20 19:56:00
3:56 PM,28.0,9.1,45,30.20,6.0,NW,13.8,-,N/A,,Haze,310,2013-01-20 20:56:00
4:56 PM,26.1,10.0,51,30.21,6.0,NW,10.4,-,N/A,,Haze,310,2013-01-20 21:56:00
5:56 PM,24.1,10.0,55,30.23,7.0,NW,10.4,-,N/A,,Mostly Cloudy,310,2013-01-20 22:56:00
6:56 PM,23.0,10.0,58,30.24,7.0,WNW,6.9,-,N/A,,Clear,290,2013-01-20 23:56:00
7:56 PM,21.0,10.0,63,30.24,7.0,NW,8.1,-,N/A,,Clear,320,2013-01-21 00:56:00
8:56 PM,20.1,11.1,68,30.23,7.0,NW,6.9,-,N/A,,Clear,310,2013-01-21 01:56:00
9:56 PM,21.0,12.0,68,30.22,7.0,WNW,6.9,-,N/A,,Mostly Cloudy,300,2013-01-21 02:56:00
10:56 PM,20.1,11.1,68,30.22,7.0,WNW,8.1,-,N/A,,Mostly Cloudy,290,2013-01-21 03:56:00
11:56 PM,20.1,11.1,68,30.20,7.0,NW,8.1,-,N/A,,Overcast,310,2013-01-21 04:56:00